Location: Denver
(39.7392°N, 104.9903°W)
Time: 15:34:11
(UTC-07:00)

ISS - Visible Passes

Search period start: 21 January 2018 00:00
Search period end: 31 January 2018 00:00
Orbit: 402 x 407 km, 51.6° (Epoch: 22 January)

Date Brightness Start Highest point End Pass type
(mag) Time Alt. Az. Time Alt. Az. Time Alt. Az.
22 Jan -1.2 18:53:04 10° S 18:53:30 12° S 18:53:30 12° S visible
23 Jan -0.8 19:36:01 10° SW 19:36:33 14° SW 19:36:33 14° SW visible
24 Jan -3.4 18:43:53 10° SSW 18:46:49 44° SSE 18:46:49 44° SSE visible
25 Jan -2.3 17:52:11 10° S 17:54:47 23° SE 17:56:59 12° E visible
25 Jan -1.4 19:28:03 10° W 19:29:40 24° W 19:29:40 24° W visible
26 Jan -3.7 18:35:28 10° WSW 18:38:42 69° NW 18:39:45 38° NE visible
27 Jan -3.6 17:43:10 10° SW 17:46:23 58° SE 17:49:35 10° ENE visible
27 Jan -1.5 19:20:30 10° WNW 19:22:25 20° NW 19:22:25 20° NW visible
28 Jan -2.4 18:27:34 10° W 18:30:31 31° NNW 18:32:20 18° NNE visible
29 Jan -1.2 19:13:14 10° NW 19:14:50 14° NNW 19:14:50 14° NNW visible
30 Jan -1.7 18:20:02 10° WNW 18:22:25 19° NNW 18:24:38 11° NNE visible
